Location: Grasslands National Park East Block
(49.0708°N, 106.5295°W)
Time: 04:16:12
(UTC-06:00)

Daily predictions for brighter satellites

Satellite Brightness Start Highest point End
(mag) Time Altitude Azimuth Time Altitude Azimuth Time Altitude Azimuth
Cosmos 2237 Rocket 3.8 04:52:16 30° NE 04:52:16 30° NE 04:55:13 10° NE
CENTAUR R/B 3.5 04:58:46 41° SE 04:59:19 42° ESE 05:05:43 10° NE
Cosmos 2369 Rocket 4.2 05:12:19 18° NNE 05:14:13 22° NE 05:18:34 10° E
ADEOS II 3.7 05:10:05 10° NNE 05:12:25 26° NNE 05:12:25 26° NNE
Lacrosse 5 rocket 3.9 05:19:05 18° NE 05:19:05 18° NE 05:20:14 10° NE
ATLAS 3B R/B 4.0 05:17:17 29° N 05:17:17 29° N 05:22:14 10° NE
NOSS 3-2 (C) 4.0 05:26:56 49° N 05:26:56 49° N 05:32:23 10° NE
Cosmos 2219 Rocket 3.5 05:31:12 30° NNE 05:31:12 30° NNE 05:34:06 10° NNE
Cosmos 921 Rocket 4.4 05:31:59 39° E 05:31:59 39° E 05:35:26 10° SE
CZ-4C R/B 3.9 05:32:24 24° N 05:32:24 24° N 05:37:01 10° NE
ATLAS 5 CENTAUR R/B 4.0 05:33:24 19° N 05:33:24 19° N 05:36:00 10° NNE
COSMO-SKYMED 1 3.9 05:31:59 10° SE 05:35:59 38° ENE 05:36:15 37° ENE
Cosmos 2333 Rocket 3.0 05:38:55 39° N 05:38:55 39° N 05:42:33 10° NNE
Meteor 1-14 Rocket 4.4 05:34:01 10° S 05:39:36 68° E 05:45:09 10° NNE
Cosmos 773 Rocket 4.3 05:48:22 54° NNE 05:48:22 54° NNE 05:52:20 10° NNE
USA 32 4.3 05:48:21 22° N 05:51:43 67° E 05:56:54 10° SSE
NOSS 3-2 (A) 4.2 05:53:09 40° NNW 05:53:09 40° NNW 05:59:20 10° NE
Cosmos 923 Rocket 4.0 05:53:50 53° S 05:55:07 80° ESE 06:00:27 10° NNE
Cosmos 1371 Rocket 4.3 05:55:32 44° N 05:57:08 68° ENE 06:02:23 10° SSE
Cosmos 2074 Rocket 4.4 05:53:12 10° S 05:59:24 65° E 06:05:36 10° NNE
NOSS 0 Rocket 4.1 06:01:23 52° NW 06:01:23 52° NW 06:07:10 10° NNE
SL-16 R/B 2.2 05:59:24 27° SSW 06:02:34 80° ESE 06:08:16 10° NNE
Cosmos 1346 Rocket 3.2 06:04:27 58° E 06:04:27 58° E 06:08:14 10° SSE
Cosmos 292 Rocket 4.1 06:02:32 12° S 06:06:54 66° ESE 06:11:42 10° NNE
Cosmos 1943 Rocket 4.0 06:04:22 12° N 06:08:13 24° NE 06:12:37 10° E
COSMOS 2428 4.3 06:10:56 20° NNW 06:10:56 20° NNW 06:13:31 10° N
Cosmos 2184 Rocket 4.1 06:06:58 10° S 06:13:06 77° E 06:19:20 10° NNE
Cosmos 2360 Rocket 4.3 06:17:52 12° NNW 06:17:52 12° NNW 06:19:02 10° N
Lacrosse 4 Rocket 3.9 06:17:31 12° N 06:19:28 15° NNE 06:21:53 10° ENE
USA 215 3.4 06:16:13 10° ENE 06:22:46 73° SE 06:28:10 16° SW
Cosmos 1680 Rocket 3.3 06:19:29 16° SSW 06:23:41 79° WNW 06:28:56 10° NNE
SKYMED 2 3.4 06:19:38 10° S 06:23:58 75° WSW 06:24:52 54° NW
Cosmos 2151 Rocket 3.4 06:20:15 10° SSW 06:24:46 80° WNW 06:29:16 10° N
SL-08 ROCKET BODY 4.2 06:21:43 10° SSW 06:27:41 81° W 06:33:37 10° N
CZ-4B R/B 4.1 06:25:23 10° N 06:29:45 55° WNW 06:30:17 51° W
Meteor 1-28 Rocket 3.4 06:28:05 10° SSE 06:31:52 73° ENE 06:34:00 25° N
Cosmos 1633 4.0 06:30:15 10° SSE 06:33:41 40° E 06:37:07 10° NNE
Cosmos 2237 Rocket 2.8 06:34:09 34° NW 06:34:09 34° NW 06:39:11 10° NNE
Feng Yun 1-1 Rocket 4.4 06:31:41 10° N 06:37:09 49° WNW 06:42:26 10° SW
Cosmos 1709 Rocket 4.5 06:36:53 35° WNW 06:37:17 35° WNW 06:42:57 10° N
Radarsat Rocket 4.4 06:30:36 10° NNE 06:37:25 88° ESE 06:45:10 10° SSW
NOAA 6 3.9 06:33:06 10° N 06:38:13 70° WNW 06:43:19 10° SSW
Tiangong 2 2.9 06:38:00 22° S 06:38:35 23° S 06:41:10 10° ESE
Meteor 2-4 Rocket 4.3 06:34:09 10° N 06:39:32 57° ENE 06:45:01 10° SSE
Okean-O 4.3 06:37:19 10° N 06:38:47 19° NNW 06:38:47 19° NNW
Cosmos 2112 Rocket 3.9 06:37:26 10° SW 06:42:36 65° WNW 06:47:47 10° NNE
Cosmos 1536 Rocket 3.9 06:43:30 41° WNW 06:44:00 43° W 06:48:11 10° SSW
Cosmos 1238 Rocket 3.9 06:47:59 33° W 06:48:01 33° W 06:52:46 10° SSW
CZ-2C R/B 4.5 06:43:24 10° NNE 06:48:01 31° E 06:52:33 10° SSE
Helios 1B rocket 3.8 06:44:26 10° SE 06:48:19 40° ENE 06:52:13 10° N
CENTAUR R/B 2.8 06:46:00 24° WSW 06:49:50 55° NW 06:56:56 10° NE
CSL-04 Rocket 4.0 06:44:27 10° NNE 06:50:02 71° ESE 06:55:33 10° S
Cosmos 1610 Rocket 4.4 06:46:13 10° SSW 06:52:25 79° W 06:58:42 10° N
ADEOS II 3.4 06:50:34 10° N 06:53:22 21° NW 06:53:22 21° NW
Lacrosse 5 rocket 2.3 06:54:49 28° NW 06:55:45 31° NNW 06:59:39 10° NE
SL-23 DEB 3.2 06:56:34 44° WNW 06:57:27 84° NNE 07:00:55 10° ESE
DNEPR-1 R/B 4.5 06:51:27 10° SW 06:58:35 90° WNW 07:04:24 10° NE
Cosmos 2369 Rocket 2.2 06:54:09 14° NNW 06:59:07 87° ENE 07:04:50 10° SSE
Cosmos 1603 3.7 06:54:19 10° SSW 07:00:01 85° ESE 07:05:43 10° NNE
Cosmos 1025 Rocket 3.2 06:57:06 10° N 07:01:31 74° E 07:05:54 10° SSE
Okean 1 Rocket 2.9 07:02:48 10° SSW 07:07:13 77° W 07:11:37 10° N
ATLAS 3B R/B 4.1 07:04:33 14° NW 07:09:00 25° N 07:14:35 10° ENE
Cosmos 921 Rocket 4.2 07:08:50 23° W 07:09:10 23° W 07:12:43 10° SSW
Okean 1-7 Rocket 3.6 07:06:53 10° NNW 07:11:13 59° W 07:15:31 10° S
COSMO-SKYMED 1 3.6 07:08:38 10° SSW 07:12:15 26° W 07:13:27 23° WNW
PAYLOAD A 4.5 07:07:41 10° NNE 07:13:00 71° ESE 07:18:25 10° S
Cosmos 2219 Rocket 3.7 07:12:57 16° NW 07:13:39 16° NW 07:17:10 10° N
Lacrosse 5 3.2 07:10:03 10° SSW 07:14:50 42° SE 07:19:39 10° ENE
USA 129 3.5 07:14:30 10° SSW 07:15:23 19° SW 07:15:23 19° SW
ATLAS 5 CENTAUR R/B 3.9 07:14:57 12° NNW 07:18:20 19° N 07:22:32 10° NE
Nadezhda 3 Rocket 4.2 07:14:00 10° NNW 07:20:10 54° W 07:26:19 10° SSW
Cosmos 2056 Rocket 4.1 07:17:27 17° NW 07:20:50 34° WSW 07:25:25 10° SSW
Cosmos 2333 Rocket 3.6 07:20:58 16° NW 07:22:18 17° NW 07:26:01 10° N
CZ-4C R/B 4.0 07:17:35 12° NW 07:22:20 25° NNE 07:28:09 10° ENE
Cosmos 1900 4.4 07:18:55 13° NW 07:23:19 79° NE 07:28:15 10° SE
Cosmos 1420 Rocket 4.2 07:20:23 10° NNW 07:25:41 74° ENE 07:30:55 10° SSE
Cosmos 1943 3.6 07:21:39 10° SSW 07:27:13 68° ESE 07:32:51 10° NNE
Cosmos 192 4.2 07:22:27 10° SSW 07:27:21 72° WNW 07:32:16 10° NNE
Okean 2 3.4 07:26:33 10° N 07:30:46 88° W 07:34:56 10° S
Cosmos 1892 Rocket 3.6 07:26:37 10° N 07:31:06 86° E 07:35:34 10° S
Cosmos 44 Rocket 3.6 07:27:55 10° SSW 07:33:05 77° SE 07:38:11 10° NE
IDEFIX/ARIANE 42P 2.9 07:29:09 10° NNE 07:34:21 71° ESE 07:39:32 10° S
Meteor 1-29 2.8 07:33:19 10° SSE 07:36:42 82° WSW 07:40:06 10° NNW
Ariane Rocket 3.4 07:33:28 10° N 07:38:10 39° WNW 07:42:50 10° SW
Cosmos 1300 Rocket 4.3 07:35:30 10° SW 07:39:27 31° WNW 07:43:23 10° N
Meteor 1-11 Rocket 3.9 07:34:35 10° SSW 07:40:18 53° WNW 07:45:56 10° N
Cosmos 1602 4.5 07:37:03 10° SW 07:40:38 31° WNW 07:44:13 10° N
Cosmos 1727 Rocket 4.3 07:35:06 10° N 07:41:19 73° E 07:47:28 10° SSE
Cosmos 2341 Rocket 4.0 07:35:45 10° SSW 07:41:58 60° WNW 07:48:11 10° N
SL-16 R/B 3.3 07:42:48 10° W 07:47:21 24° NW 07:51:56 10° N
SJ-12 3.9 07:44:50 10° N 07:48:59 67° WNW 07:53:06 10° SSW
CZ-4 R/B 1.4 07:45:08 10° N 07:49:04 57° WNW 07:52:55 10° SSW
Cosmos 1943 Rocket 2.1 07:47:03 10° NNW 07:52:35 77° WSW 07:58:05 10° SSE
Lacrosse 4 Rocket 1.6 07:54:46 10° NNW 07:58:59 72° NE 08:03:04 10° SE
Cosmos 1455 Rocket 3.1 07:58:24 10° S 08:02:43 87° ESE 08:07:06 10° N
Cosmos 1500 4.5 07:59:38 10° SSE 08:03:13 45° E 08:06:50 10° NNE
USA 215 3.5 07:59:19 10° ENE 08:05:41 56° NNW 08:12:01 10° W
Cosmos 1980 Rocket 4.4 08:04:38 10° N 08:06:26 11° NNE 08:08:14 10° NE
Cosmos 1633 4.1 08:06:27 10° WSW 08:08:54 17° WNW 08:11:21 10° NNW
Cosmos 1536 3.8 08:06:49 10° SW 08:10:10 26° WNW 08:13:34 10° NNW
Cosmos 1452 Rocket 4.4 08:05:47 10° NW 08:10:22 31° W 08:14:56 10° SSW
BREEZE-M DEB (TANK) 4.0 08:08:02 10° W 08:20:19 88° N 08:23:53 10° E
